Weather History for KBPT - September, 2013

Change the Weather History Date:

Wednesday, September 25, 2013

  Actual Average Record
Temperature  
Mean Temperature 80 °F 77 °F  
Max Temperature 94 °F 86 °F 100 °F (1904)
Min Temperature 66 °F 67 °F 51 °F (1994)
Degree Days  
Heating Degree Days 0 0  
Month to date heating degree days 0 0  
Since 1 July heating degree days 0 0  
Cooling Degree Days 15 12  
Month to date cooling degree days 455 366  
Year to date cooling degree days 2645 2533  
Growing Degree Days 30 (Base 50)    
Moisture  
Dew Point 68 °F    
Average Humidity 64    
Maximum Humidity 100    
Minimum Humidity 28    
Precipitation  
Precipitation 0.00 in 0.20 in 3.23 in (1913)
Month to date precipitation 4.65 5.11  
Year to date precipitation 39.86 44.34  
Snow  
Snow 0.00 in 0.00 in 0.00 in ()
Month to date snowfall 0.0 0.0  
Since 1 July snowfall 0.0 0.0  
Since 1 September snowfall 0.0 0.0  
Snow Depth 0.00 in    
Sea Level Pressure  
Sea Level Pressure 29.82 in    
Wind  
Wind Speed 4 mph (NW)    
Max Wind Speed 10 mph    
Max Gust Speed 14 mph    
Visibility 4 miles    
Events Fog    
T = Trace of Precipitation, MM = Missing Value Source: NWS Daily Summary

Daily Weather History Graph

Daily Weather History Graph

Search for Another Location

Airport or City:

Trip Planner

Search our weather history database for the weather conditions in past years. The results will help you decide how hot, cold, wet, or windy it might be!

Date:

Astronomy

Sep. 25, 2013 Rise Set
Actual Time 7:06 AM CDT 7:08 PM CDT
Civil Twilight 6:42 AM CDT 7:32 PM CDT
Nautical Twilight 6:14 AM CDT 8:00 PM CDT
Astronomical Twilight 5:46 AM CDT 8:28 PM CDT
Moon 11:37 PM CDT (9/25) 12:50 PM CDT (9/25)
Length of Visible Light 12h 50m
Length of Day
12h 02m
Waning Gibbous, 64% of the Moon is Illuminated
Sep 25
Waning Gibbous
Sep 26
Last Quarter
Oct 4
New
Oct 11
First Quarter
Oct 18
Full

Hourly Weather History & Observations

Time (CDT) Temp. Heat Index Dew Point Humidity Pressure Visibility Wind Dir Wind Speed Gust Speed Precip Events Conditions
12:53 AM 73.9 °F - 72.0 °F 93% 29.83 in 5.0 mi Calm Calm - N/A   Clear
1:42 AM 73.4 °F - 71.6 °F 94% 29.83 in 1.0 mi Calm Calm - N/A   Clear
1:49 AM 71.6 °F - 71.6 °F 100% 29.83 in 0.5 mi Calm Calm - N/A Fog Fog
1:53 AM 72.0 °F - 71.1 °F 97% 29.83 in 0.5 mi Calm Calm - N/A Fog Fog
1:58 AM 71.6 °F - 71.6 °F 100% 29.83 in 0.2 mi Calm Calm - N/A Fog Fog
2:17 AM 71.6 °F - 71.6 °F 100% 29.83 in 0.5 mi Calm Calm - N/A Fog Fog
2:25 AM 71.6 °F - 69.8 °F 94% 29.83 in 2.0 mi Calm Calm - N/A   Partly Cloudy
2:32 AM 71.6 °F - 69.8 °F 94% 29.83 in 1.2 mi Calm Calm - N/A   Clear
2:39 AM 71.6 °F - 71.6 °F 100% 29.82 in 0.2 mi Calm Calm - N/A Fog Fog
2:53 AM 71.1 °F - 70.0 °F 96% 29.82 in 0.5 mi Calm Calm - N/A Fog Fog
2:59 AM 71.6 °F - 69.8 °F 94% 29.82 in 1.8 mi Calm Calm - N/A   Clear
3:06 AM 71.6 °F - 69.8 °F 94% 29.82 in 2.5 mi Calm Calm - N/A   Clear
3:13 AM 71.6 °F - 71.6 °F 100% 29.82 in 3.0 mi Calm Calm - N/A   Clear
3:15 AM 71.6 °F - 71.6 °F 100% 29.82 in 1.5 mi Calm Calm - N/A   Clear
3:17 AM 71.6 °F - 71.6 °F 100% 29.82 in 0.8 mi Calm Calm - N/A   Mist
3:26 AM 71.6 °F - 69.8 °F 94% 29.82 in 0.2 mi Calm Calm - N/A Fog Fog
3:33 AM 71.6 °F - 69.8 °F 94% 29.82 in 0.8 mi Calm Calm - N/A   Mist
3:46 AM 71.6 °F - 71.6 °F 100% 29.81 in 1.2 mi Calm Calm - N/A   Partly Cloudy
3:51 AM 71.6 °F - 71.6 °F 100% 29.81 in 2.0 mi WNW 3.5 mph - N/A   Clear
3:53 AM 72.0 °F - 71.1 °F 97% 29.81 in 2.0 mi Calm Calm - N/A   Clear
4:53 AM 72.0 °F - 71.1 °F 97% 29.81 in 2.0 mi Calm Calm - N/A   Clear
4:57 AM 71.6 °F - 69.8 °F 94% 29.81 in 1.2 mi Calm Calm - N/A   Clear
5:04 AM 69.8 °F - 69.8 °F 100% 29.81 in 0.2 mi Calm Calm - N/A Fog Fog
5:21 AM 69.8 °F - 68.0 °F 94% 29.81 in 0.2 mi Calm Calm - N/A Fog Fog
5:48 AM 69.8 °F - 69.8 °F 100% 29.82 in 1.0 mi Calm Calm - N/A   Clear
5:53 AM 69.1 °F - 68.0 °F 96% 29.82 in 1.5 mi Calm Calm - N/A   Clear
6:00 AM 69.8 °F - 68.0 °F 94% 29.82 in 1.0 mi Calm Calm - N/A   Mist
6:03 AM 68.0 °F - 66.2 °F 94% 29.82 in 7.0 mi Calm Calm - N/A   Clear
6:22 AM 68.0 °F - 66.2 °F 94% 29.83 in 4.0 mi Calm Calm - N/A   Clear
6:29 AM 69.8 °F - 68.0 °F 94% 29.83 in 4.0 mi Calm Calm - N/A   Clear
6:40 AM 69.8 °F - 68.0 °F 94% 29.83 in 4.0 mi NW 3.5 mph - N/A   Clear
6:50 AM 68.0 °F - 66.2 °F 94% 29.83 in 4.0 mi Calm Calm - N/A   Clear
6:53 AM 69.1 °F - 68.0 °F 96% 29.83 in 4.0 mi Calm Calm - N/A   Clear
7:00 AM 69.8 °F - 69.8 °F 100% 29.83 in 0.8 mi Calm Calm - N/A   Mist
7:10 AM 66.2 °F - 66.2 °F 100% 29.83 in 0.2 mi Calm Calm - N/A   Mist
7:21 AM 66.2 °F - 66.2 °F 100% 29.83 in 0.2 mi Calm Calm - N/A   Mist
7:30 AM 68.0 °F - 66.2 °F 94% 29.84 in 0.2 mi Calm Calm - N/A   Mist
7:47 AM 69.8 °F - 69.8 °F 100% 29.84 in 0.5 mi Calm Calm - N/A   Clear
7:53 AM 69.1 °F - 68.0 °F 96% 29.84 in 0.2 mi Calm Calm - N/A   Clear
8:01 AM 69.8 °F - 68.0 °F 94% 29.84 in 4.0 mi Calm Calm - N/A   Clear
8:53 AM 75.9 °F - 73.0 °F 91% 29.86 in 5.0 mi NNW 4.6 mph - N/A   Haze
9:53 AM 81.0 °F 85.8 °F 73.0 °F 77% 29.87 in 7.0 mi North 4.6 mph - N/A   Clear
10:53 AM 84.9 °F 90.7 °F 72.0 °F 65% 29.87 in 10.0 mi WNW 6.9 mph - N/A   Clear
11:53 AM 88.0 °F 92.9 °F 70.0 °F 55% 29.86 in 10.0 mi North 4.6 mph - N/A   Clear
12:53 PM 91.9 °F 94.5 °F 66.0 °F 42% 29.85 in 10.0 mi Variable 4.6 mph - N/A   Clear
1:53 PM 93.0 °F 92.7 °F 60.1 °F 33% 29.83 in 10.0 mi WNW 9.2 mph - N/A   Scattered Clouds
2:53 PM 93.9 °F 93.6 °F 60.1 °F 32% 29.80 in 10.0 mi North 6.9 mph - N/A   Clear
3:53 PM 93.9 °F 92.9 °F 57.9 °F 30% 29.79 in 10.0 mi NNW 8.1 mph - N/A   Clear
4:53 PM 93.0 °F 91.7 °F 57.0 °F 30% 29.78 in 10.0 mi North 8.1 mph - N/A   Clear
5:53 PM 91.9 °F 89.5 °F 53.1 °F 27% 29.78 in 10.0 mi NNE 6.9 mph - N/A   Clear
6:53 PM 87.1 °F 85.1 °F 54.0 °F 32% 29.79 in 10.0 mi NE 4.6 mph - N/A   Clear
7:53 PM 78.1 °F - 73.9 °F 87% 29.80 in 9.0 mi South 5.8 mph - N/A   Clear
8:53 PM 78.1 °F - 73.9 °F 87% 29.81 in 8.0 mi SSW 5.8 mph - N/A   Clear
9:53 PM 75.0 °F - 72.0 °F 90% 29.82 in 8.0 mi SW 3.5 mph - N/A   Clear
10:53 PM 75.0 °F - 72.0 °F 90% 29.83 in 8.0 mi SSW 4.6 mph - N/A   Clear
11:28 PM 73.4 °F - 71.6 °F 94% 29.83 in 2.5 mi Calm Calm - N/A   Clear
11:35 PM 73.4 °F - 71.6 °F 94% 29.82 in 6.0 mi Calm Calm - N/A   Clear
11:53 PM 73.0 °F - 71.1 °F 93% 29.83 in 6.0 mi Calm Calm - N/A   Clear